TimeCET,TemperatureF,Dew PointF,Humidity,Sea Level PressureIn,VisibilityMPH,Wind Direction,Wind SpeedMPH,Gust SpeedMPH,PrecipitationIn,Events,Conditions,WindDirDegrees,DateUTC
12:00 AM,50.0,42.8,76,30.15,-9999.0,WNW,8.1,-,N/A,,Clear,290,2013-02-14 23:00:00
12:30 AM,50.0,42.8,76,30.15,-9999.0,West,5.8,-,N/A,,Clear,280,2013-02-14 23:30:00
1:00 AM,50,42,67,30.18,9,WNW,8.1,,,,,290,2013-02-15 00:00:00
1:00 AM,50.0,42.8,76,30.15,-9999.0,WNW,8.1,-,N/A,,Clear,290,2013-02-15 00:00:00
1:30 AM,48.2,42.8,82,30.15,-9999.0,WNW,9.2,-,N/A,,Clear,290,2013-02-15 00:30:00
2:00 AM,48.2,42.8,82,30.15,-9999.0,WNW,11.5,-,N/A,,Clear,290,2013-02-15 01:00:00
2:30 AM,46.4,41.0,81,30.15,-9999.0,NW,6.9,-,N/A,,Clear,310,2013-02-15 01:30:00
3:00 AM,46.4,41.0,81,30.15,-9999.0,WNW,8.1,-,N/A,,Clear,290,2013-02-15 02:00:00
3:30 AM,46.4,41.0,81,30.12,-9999.0,WNW,5.8,-,N/A,,Clear,290,2013-02-15 02:30:00
4:00 AM,44.6,41.0,87,30.12,-9999.0,WNW,6.9,-,N/A,,Clear,300,2013-02-15 03:00:00
4:30 AM,44.6,41.0,87,30.12,-9999.0,WNW,8.1,-,N/A,,Clear,290,2013-02-15 03:30:00
5:00 AM,44.6,41.0,87,30.12,-9999.0,WNW,9.2,-,N/A,,Clear,300,2013-02-15 04:00:00
5:30 AM,44.6,39.2,81,30.12,-9999.0,WNW,8.1,-,N/A,,Clear,290,2013-02-15 04:30:00
6:00 AM,44.6,39.2,81,30.12,-9999.0,WNW,10.4,-,N/A,,Clear,290,2013-02-15 05:00:00
6:30 AM,42.8,39.2,87,30.12,-9999.0,WNW,8.1,-,N/A,,Clear,300,2013-02-15 05:30:00
7:00 AM,45,40,78,30.14,9,WNW,10.4,,,,,300,2013-02-15 06:00:00
7:00 AM,42.8,39.2,87,30.12,-9999.0,WNW,10.4,-,N/A,,Clear,300,2013-02-15 06:00:00
7:30 AM,41.0,39.2,93,30.12,-9999.0,WNW,8.1,-,N/A,,Clear,300,2013-02-15 06:30:00
8:00 AM,42.8,39.2,87,30.12,-9999.0,WNW,8.1,-,N/A,,Clear,300,2013-02-15 07:00:00
8:30 AM,42.8,39.2,87,30.15,-9999.0,WNW,10.4,-,N/A,,Clear,300,2013-02-15 07:30:00
9:00 AM,44.6,39.2,81,30.15,-9999.0,WNW,9.2,-,N/A,,Clear,300,2013-02-15 08:00:00
9:30 AM,48.2,41.0,76,30.15,-9999.0,WNW,9.2,-,N/A,,Clear,300,2013-02-15 08:30:00
10:00 AM,50.0,42.8,76,30.15,-9999.0,WNW,8.1,-,N/A,,Clear,300,2013-02-15 09:00:00
10:30 AM,53.6,44.6,72,30.15,-9999.0,WNW,8.1,-,N/A,,Clear,300,2013-02-15 09:30:00
11:00 AM,57.2,46.4,67,30.15,-9999.0,WNW,5.8,-,N/A,,Clear,300,2013-02-15 10:00:00
11:30 AM,62.6,44.6,52,30.15,-9999.0,WNW,4.6,-,N/A,,Clear,300,2013-02-15 10:30:00
12:00 PM,66.2,44.6,46,30.15,-9999.0,Variable,2.3,-,N/A,,Clear,0,2013-02-15 11:00:00
12:30 PM,66.2,44.6,46,30.15,-9999.0,SE,3.5,-,N/A,,Clear,130,2013-02-15 11:30:00
1:00 PM,69,51,42,30.17,19,SSE,5.8,,,,Clear,150,2013-02-15 12:00:00
1:00 PM,66.2,42.8,43,30.15,-9999.0,SSE,5.8,-,N/A,,Clear,150,2013-02-15 12:00:00
1:30 PM,66.2,41.0,40,30.12,-9999.0,SE,8.1,-,N/A,,Clear,140,2013-02-15 12:30:00
2:00 PM,66.2,42.8,43,30.12,-9999.0,SE,9.2,-,N/A,,Clear,140,2013-02-15 13:00:00
2:30 PM,68.0,42.8,40,30.09,-9999.0,SSE,8.1,-,N/A,,Clear,150,2013-02-15 13:30:00
3:00 PM,68.0,41.0,37,30.09,-9999.0,South,9.2,-,N/A,,Clear,180,2013-02-15 14:00:00
3:30 PM,68.0,41.0,37,30.09,-9999.0,South,9.2,-,N/A,,Clear,170,2013-02-15 14:30:00
4:00 PM,68.0,44.6,43,30.06,-9999.0,South,9.2,-,N/A,,Clear,170,2013-02-15 15:00:00
4:30 PM,68.0,42.8,40,30.06,-9999.0,SSE,9.2,-,N/A,,Clear,160,2013-02-15 15:30:00
5:00 PM,66.2,42.8,43,30.06,-9999.0,SSE,9.2,-,N/A,,Clear,160,2013-02-15 16:00:00
5:30 PM,66.2,42.8,43,30.06,-9999.0,SSE,8.1,-,N/A,,Clear,150,2013-02-15 16:30:00
6:00 PM,64.4,42.8,45,30.06,-9999.0,SSE,8.1,-,N/A,,Clear,150,2013-02-15 17:00:00
6:30 PM,59.0,50.0,72,30.06,-9999.0,East,12.7,-,N/A,,Clear,80,2013-02-15 17:30:00
7:00 PM,60,49,59,30.10,19,East,5.8,,,,Clear,100,2013-02-15 18:00:00
7:00 PM,59.0,48.2,67,30.09,-9999.0,East,5.8,-,N/A,,Clear,100,2013-02-15 18:00:00
7:30 PM,57.2,48.2,72,30.09,-9999.0,East,4.6,-,N/A,,Clear,80,2013-02-15 18:30:00
8:00 PM,55.4,48.2,77,30.09,-9999.0,Variable,1.2,-,N/A,,Clear,0,2013-02-15 19:00:00
8:30 PM,55.4,48.2,77,30.09,-9999.0,Calm,Calm,-,N/A,,Clear,0,2013-02-15 19:30:00
9:00 PM,55.4,48.2,77,30.12,-9999.0,Calm,Calm,-,N/A,,Clear,0,2013-02-15 20:00:00
9:30 PM,53.6,48.2,82,30.12,-9999.0,Variable,2.3,-,N/A,,Clear,0,2013-02-15 20:30:00
10:00 PM,53.6,46.4,77,30.12,-9999.0,SSW,1.2,-,N/A,,Clear,200,2013-02-15 21:00:00
10:30 PM,50.0,46.4,87,30.12,-9999.0,NW,1.2,-,N/A,,Clear,310,2013-02-15 21:30:00
11:00 PM,50.0,44.6,82,30.12,-9999.0,WNW,2.3,-,N/A,,Clear,290,2013-02-15 22:00:00
11:30 PM,50.0,42.8,76,30.12,-9999.0,WNW,2.3,-,N/A,,Clear,290,2013-02-15 22:30:00